Regional Weather Roundup
Issued by NWS

Home | Current Version | Previous Version | Text Only | Print | Product List | Glossary Off
Versions: 1 2 3 4 5 6 7 8 9 10 11 12 13 14 15 16 17 18 19 20 21 22 23 24 25 26 27 28 29 30 31 32 33 34 35 36 37 38 39 40 41 42 43 44 45 46 47 48 49 50

000
ASUS43 KFSD 260202
RWRSD

WEATHER ROUNDUP FOR SOUTH DAKOTA
NATIONAL WEATHER SERVICE SIOUX FALLS SD
800 PM CST SUN FEB 25 2018

NOTE: "FAIR" INDICATES FEW OR NO CLOUDS BELOW 12,000 FEET WITH NO
SIGNIFICANT WEATHER AND/OR OBSTRUCTIONS TO VISIBILITY.


SDZ001>005-009-010-012>017-260300-
NORTHWEST AND NORTH CENTRAL SOUTH DAKOTA

CITY           SKY/WX    TMP DP  RH WIND       PRES   REMARKS
BUFFALO          N/A     21  10  62 SW15      29.67S WCI   8
FAITH            N/A     20  14  77 SW13      29.78S WCI   7
MOBRIDGE       CLEAR     25  16  68 S9        29.78S WCI  15
$$

SDZ012>016-024>037-041>051-057-063-072>074-260300-
SOUTHWEST AND SOUTH CENTRAL SOUTH DAKOTA

CITY           SKY/WX    TMP DP  RH WIND       PRES   REMARKS
RAPID CTY ARPT CLEAR     22  11  62 SW6       29.82R WCI  14
PIERRE         CLEAR     26  17  68 SW10      29.85S WCI  16
CUSTER         PTCLDY    21   9  59 W8        29.77R WCI  11
ELLSWORTH AFB  CLEAR     26  15  63 CALM      29.80R
PHILIP         CLEAR     22  15  75 W8        29.86R WCI  12
PINE RIDGE     CLEAR    N/A N/A N/A MISG      29.88S
SPEARFISH        N/A     30   7  37 SW22      29.76S WCI  17
WINNER         FAIR      29  18  63 S12       29.90F WCI  19
$$

SDZ004>011-016>023-039-040-260300-
NORTHEAST SOUTH DAKOTA

CITY           SKY/WX    TMP DP  RH WIND       PRES   REMARKS
ABERDEEN       CLEAR     13  11  92 S10       29.85S WCI   0
WATERTOWN      CLEAR     17  13  84 SW12      29.86R WCI   4
BROOKINGS      CLEAR     18  13  80 S8        29.91R WCI   8
SISSETON         N/A     24  17  74 SW17      29.82S WCI  11
$$

SDZ017-020-022-023-036>040-048>070-260300-
SOUTHEAST SOUTH DAKOTA

CITY           SKY/WX    TMP DP  RH WIND       PRES   REMARKS
SIOUX FALLS    CLEAR     24  18  77 SW6       29.95R WCI  17
HURON          CLEAR     24  18  77 S9        29.90R WCI  14
CHAMBERLAIN    CLEAR     22  16  79 S6        29.91S WCI  14
MITCHELL       CLEAR     26  18  71 S12       29.93S WCI  16
YANKTON        CLEAR     28  19  69 SW6       29.98R WCI  22
$$

ABBREVIATIONS USED IN REMARKS
   TC - TEMPERATURE IN CELSIUS
  WCI - WIND CHILL INDEX
   HX - HEAT INDEX
  VSB - VISIBILITY





USA.gov is the U.S. government's official web portal to all federal, state and local government web resources and services.